Weather in Nizhniy Uslon

Russia / Republic of Tatarstan     55°41′47″N   48°58′05″E
temp.,
°C
wind,
m/s
gust,
m/s
humid.,
%
clouds,
%
prec.,
mm/h
press.,
hPa
HPBL,
m
16 may, sun
sun1600:00+20s4115196 0.0 1016231
03:00+18s385499 0.0 1016166
06:00+20s3125520 0.0 1016379
09:00+25ssw6103940 0.0 1016596
12:00+29ssw7123121 0.0 10161564
15:00+29ssw7103335 0.0 10152103
18:00+26ssw494411 0.0 1015855
21:00+21sw365540 0.0 1016152
17 may, mon
mon1700:00+19wsw23625 0.0 101653
03:00+17w116835 0.0 101713
06:00+20w116176 0.0 1017112
09:00+25wsw124847 0.0 1018513
12:00+28ssw233752 0.0 10171169
15:00+29wsw35365 0.0 10171709
18:00+28nw124211 0.0 1017413
21:00+24ese125355 0.0 101756
18 may, tue
tue1800:00+20nw356783 0.1 101899
03:00+18ene357567 0.1 101898
06:00+20e367195 0.0 1018214
09:00+25ese3452100 0.0 1018556
12:00+29ese33418 0.0 10181435
15:00+29se333558 0.0 10182517
18:00+27ese465026 0.0 1018758
21:00+20e3107223 0.3 1019262
19 may, wed
wed1900:00+19e387219 0.1 1019221
03:00+16ese4127513 0.2 1019288
06:00+19ese5116533 0.0 1019314
09:00+23ese68506 0.0 1019642
12:00+25ese67395 0.0 10181018
15:00+26ese67365 0.0 10181156
18:00+24ese59475 0.0 1017644
21:00+19e514585 0.0 1017353
20 may, thu
thu2000:00+17se4137050 0.0 1017330
03:00+15se412725 0.0 1017296
06:00+17se613645 0.0 1017370
09:00+21se711505 0.0 1017714
12:00+25se810450 0.0 10161216
15:00+26sse811440 0.0 10161845
18:00+23s485687 0.0 1016910
21:00+20s247159 0.2 1017237